Location: Melbourne
(37.8170°S, 144.9670°E)
Time: 16:16:41
(UTC+10:00)

ERBS - Visible Passes

Search period start: 21 August 2014 00:00
Search period end: 31 August 2014 00:00
Orbit: 469 x 488 km, 57.0° (Epoch: 20 August)

Date Brightness Start Highest point End Pass type
(mag) Time Alt. Az. Time Alt. Az. Time Alt. Az.
21 Aug 6.0 05:45:14 10° NE 05:46:19 11° ENE 05:47:23 10° ENE visible
23 Aug 2.6 06:23:21 10° NW 06:27:07 86° NE 06:30:55 10° SE visible
24 Aug 2.8 05:55:12 10° NNW 05:58:57 71° NE 06:02:44 10° SE visible
25 Aug 3.1 05:27:50 15° NNW 05:30:47 58° NE 05:34:31 10° SE visible
26 Aug 3.4 05:01:39 37° N 05:02:37 47° NE 05:06:16 10° SE visible
27 Aug 4.2 04:35:13 34° E 04:35:13 34° E 04:37:58 10° ESE visible
27 Aug 4.0 06:09:26 12° W 06:12:09 22° SW 06:15:11 10° SSE visible
28 Aug 5.4 04:08:33 17° ESE 04:08:33 17° ESE 04:09:39 10° ESE visible
28 Aug 3.8 05:42:46 22° WSW 05:43:52 25° SW 05:47:05 10° SSE visible
29 Aug 3.7 05:15:56 29° SSW 05:15:56 29° SSW 05:18:57 10° SSE visible
30 Aug 4.4 04:48:59 23° S 04:48:59 23° S 04:50:48 10° SSE visible
